Virginia Beach Weather Center

Moon Phase Calendar



Online Cameras

 


      

Current Conditions in Virginia Beach
7/28/2021 5:14:12 PM

81°F
Feels Like 85
Clouds
Humidity
69%
Pressure
29.97"
Wind
9.2 mph (SSW)
Dew Point
70°F
UV Index
3/10 (Moderate)
Visibility
6 mi

Hourly Forecast

Date & Time Wed, Jul 28
5:00 PM
Wed, Jul 28
6:00 PM
Wed, Jul 28
7:00 PM
Wed, Jul 28
8:00 PM
Wed, Jul 28
9:00 PM
Wed, Jul 28
10:00 PM
Wed, Jul 28
11:00 PM
Thu, Jul 29
12:00 AM
Thu, Jul 29
1:00 AM
Thu, Jul 29
2:00 AM
Thu, Jul 29
3:00 AM
Thu, Jul 29
4:00 AM
Thu, Jul 29
5:00 AM
Thu, Jul 29
6:00 AM
Thu, Jul 29
7:00 AM
Thu, Jul 29
8:00 AM
Thu, Jul 29
9:00 AM
Thu, Jul 29
10:00 AM
Thu, Jul 29
11:00 AM
Thu, Jul 29
12:00 PM
Thu, Jul 29
1:00 PM
Thu, Jul 29
2:00 PM
Thu, Jul 29
3:00 PM
Thu, Jul 29
4:00 PM
Thu, Jul 29
5:00 PM
Thu, Jul 29
6:00 PM
Thu, Jul 29
7:00 PM
Thu, Jul 29
8:00 PM
Thu, Jul 29
9:00 PM
Thu, Jul 29
10:00 PM
Thu, Jul 29
11:00 PM
Fri, Jul 30
12:00 AM
Fri, Jul 30
1:00 AM
Fri, Jul 30
2:00 AM
Fri, Jul 30
3:00 AM
Fri, Jul 30
4:00 AM
Fri, Jul 30
5:00 AM
Fri, Jul 30
6:00 AM
Fri, Jul 30
7:00 AM
Fri, Jul 30
8:00 AM
Fri, Jul 30
9:00 AM
Fri, Jul 30
10:00 AM
Fri, Jul 30
11:00 AM
Fri, Jul 30
12:00 PM
Fri, Jul 30
1:00 PM
Fri, Jul 30
2:00 PM
Fri, Jul 30
3:00 PM
Fri, Jul 30
4:00 PM
Condition
Clouds

Clouds

Clouds

Clouds

Clouds

Clouds

Clouds

Clouds

Clouds

Clouds

Clear

Clear

Clear

Clear

Clouds

Clouds

Clouds

Clouds

Clouds

Rain

Clouds

Clouds

Clouds

Clouds

Clouds

Rain

Rain

Rain

Rain

Rain

Rain

Rain

Rain

Clouds

Clouds

Clouds

Clouds

Clouds

Clouds

Clouds

Clouds

Clouds

Clouds

Clouds

Clouds

Clouds

Clouds

Clouds
Temperature 81°F82°F82°F81°F77°F74°F74°F74°F74°F74°F74°F73°F73°F73°F73°F75°F77°F80°F83°F84°F85°F86°F87°F84°F84°F77°F75°F75°F74°F74°F74°F75°F76°F76°F75°F75°F75°F74°F75°F76°F78°F80°F82°F83°F83°F83°F82°F83°F
Feels Like 85°F86°F86°F84°F78°F75°F75°F75°F75°F75°F75°F74°F74°F73°F73°F75°F78°F83°F87°F89°F91°F93°F93°F90°F90°F78°F76°F77°F75°F75°F76°F77°F78°F77°F77°F77°F76°F76°F76°F77°F80°F84°F86°F88°F89°F88°F86°F88°F
Cloudiness 75%61%51%47%95%80%54%41%33%28%0%0%0%1%12%16%100%62%42%32%30%39%90%94%95%95%96%97%98%85%75%78%82%83%100%100%100%100%100%100%76%65%44%33%30%35%70%68%
Visibility 6 mi6 mi6 mi6 mi6 mi6 mi6 mi6 mi6 mi6 mi6 mi6 mi6 mi6 mi6 mi6 mi6 mi6 mi6 mi6 mi6 mi6 mi6 mi6 mi6 mi2 mi4 mi3 mi6 mi4 mi6 mi6 mi6 mi6 mi6 mi6 mi6 mi6 mi6 mi6 mi6 mi6 mi6 mi6 mi6 mi6 mi6 mi6 mi
Precipitation 20%30%25%21%0%0%0%2%0%0%0%0%0%0%0%0%5%0%0%24%10%6%0%0%17%64%88%88%88%92%95%96%96%76%19%10%5%3%3%3%0%0%0%0%0%0%15%9%
Humidity 69%68%68%71%75%77%76%75%74%73%73%73%72%72%72%69%71%69%67%66%65%63%61%67%66%89%92%94%92%93%93%95%93%92%91%92%92%92%91%88%80%74%72%71%69%68%72%67%
Dew Point 70°F70°F70°F70°F68°F66°F66°F66°F65°F65°F65°F64°F64°F63°F63°F64°F67°F69°F70°F71°F71°F71°F71°F72°F71°F73°F72°F73°F71°F71°F72°F73°F74°F73°F73°F72°F72°F72°F72°F72°F72°F71°F72°F72°F72°F71°F72°F71°F
Pressure 29.97"29.97"29.97"29.94"29.97"29.97"29.97"29.97"29.97"29.97"29.97"29.97"29.97"29.97"29.97"29.97"30"30"29.97"29.97"29.94"29.91"29.88"29.85"29.83"29.85"29.8"29.88"29.88"29.91"29.88"29.88"29.85"29.85"29.83"29.8"29.8"29.8"29.8"29.83"29.83"29.83"29.83"29.83"29.83"29.83"29.85"29.85"
Wind Speed 7 mph9.2 mph10.5 mph9 mph12.6 mph8.2 mph4.8 mph3.5 mph2.8 mph3.8 mph4.4 mph5.7 mph4.7 mph5.3 mph6.3 mph7 mph7.2 mph6.7 mph7.6 mph9.1 mph10.9 mph12.6 mph14.4 mph16.9 mph18.8 mph10.7 mph5.1 mph16.3 mph18.7 mph18.2 mph17.5 mph15.7 mph15.2 mph15.8 mph14.6 mph13.4 mph12.9 mph12 mph12.1 mph11.3 mph12.1 mph13.7 mph12.2 mph9.1 mph7.3 mph6.4 mph4.2 mph4.6 mph
Wind
Direction
102°
ESE
137°
SE
170°
S
188°
S
210°
SSW
222°
SW
227°
SW
229°
SW
244°
WSW
247°
WSW
227°
SW
226°
SW
230°
SW
221°
SW
210°
SSW
206°
SSW
207°
SSW
192°
SSW
182°
S
170°
S
163°
SSE
168°
SSE
172°
S
170°
S
173°
S
270°
W
137°
SE
129°
SE
144°
SE
149°
SSE
158°
SSE
172°
S
186°
S
204°
SSW
217°
SW
226°
SW
233°
SW
234°
SW
237°
WSW
244°
WSW
263°
W
281°
W
286°
WNW
303°
WNW
331°
NNW
359°
N
33°
NNE
64°
ENE

Daily Forecast

Date High Low Precip. Humidity
Today
Jul 28

Rain
85 °F
74 °F
58%
64%
Thursday
Jul 29

Rain
87 °F
73 °F
95%
65%
Friday
Jul 30

Rain
83 °F
74 °F
96%
68%
Saturday
Jul 31

Clouds
75 °F
71 °F
2%
45%
Sunday
Aug 1

Rain
79 °F
70 °F
100%
57%
Monday
Aug 2

Rain
77 °F
73 °F
98%
87%
Tuesday
Aug 3

Rain
81 °F
73 °F
100%
77%
Wednesday
Aug 4

Rain
76 °F
72 °F
100%
92%
Thursday
Aug 5

Rain
85 °F
74 °F
100%
67%
Friday
Aug 6

Rain
87 °F
75 °F
36%
62%
Saturday
Aug 7

Rain
87 °F
75 °F
67%
63%
Sunday
Aug 8

Clouds
90 °F
77 °F
7%
58%
Monday
Aug 9

Clear
89 °F
78 °F
9%
58%
Tuesday
Aug 10

Rain
90 °F
75 °F
37%
59%
Wednesday
Aug 11

Rain
81 °F
75 °F
70%
77%
Thursday
Aug 12

Rain
79 °F
73 °F
47%
55%

Temperature 8-14 Day Outlook



Precipitation 8-14 Day Outlook




Quick Links
Virginia Beach News
Virginia Beach Photos
Virginia Beach Videos




About Us
Contact Us
Site Map
Search Site
Advertise With Us
   
VirginiaBeach.USCoast.info
THE VIRGINIA BEACH WEBSITE

Copyright 2021, Coastal Town
Privacy    |    Legal